Stations météo

réclame
Mon MeteoGroup
St. Athan, Grande-Bretagne (3716): Température de l'air & dewpoint: 12.11.2018 04:00:00 - 18.11.2018 04:00:00 (GMT)St. Athan, Grande-Bretagne (3716): Température de l'air -20cm & Température de l'air -100cm: 12.11.2018 04:00:00 - 18.11.2018 04:00:00 (GMT)St. Athan, Grande-Bretagne (3716): Vitesse du vent & gusts: 12.11.2018 04:00:00 - 18.11.2018 04:00:00 (GMT)St. Athan, Grande-Bretagne (3716): Direction du vent: 12.11.2018 04:00:00 - 18.11.2018 04:00:00 (GMT)St. Athan, Grande-Bretagne (3716): reduced air pressure: 12.11.2018 04:00:00 - 18.11.2018 04:00:00 (GMT)St. Athan, Grande-Bretagne (3716): visibility: 12.11.2018 04:00:00 - 18.11.2018 04:00:00 (GMT)St. Athan, Grande-Bretagne (3716): Ensoleillement: 12.11.2018 04:00:00 - 18.11.2018 04:00:00 (GMT)St. Athan, Grande-Bretagne (3716): Quantités de précipitations: 12.11.2018 04:00:00 - 18.11.2018 04:00:00 (GMT)
Date & Time tt [°C] td [°C] tt -20cm [°C] tt -100cm [°C] ff [km/h] ff [knt] fx [km/h] fx [knt] dd ppp [hPa] vv [km] sd [min] rr [mm]
18.11.2018 04:00:00 5,8 3,5 - - 29 16 - - E 1025,2 9 0 0,0
18.11.2018 03:00:00 6,0 3,9 - - 28 15 - - ENE 1024,9 8 0 0,0
18.11.2018 02:00:00 6,4 4,3 - - 24 13 - - ENE 1025,2 9 0 0,0
18.11.2018 01:00:00 6,7 4,6 - - 29 16 46 25 ENE 1025,1 9 0 0,0
18.11.2018 00:00:00 6,8 4,6 - - 35 19 46 25 E 1025,0 9 - 0,0
17.11.2018 23:00:00 6,5 4,6 - - 29 16 - - E 1025,1 9 0 0,0
17.11.2018 22:00:00 6,8 4,8 - - 31 17 46 25 E 1024,9 9 0 0,0
17.11.2018 21:00:00 7,4 5,2 - - 29 16 50 27 E 1024,6 9 0 0,0
17.11.2018 20:00:00 7,7 5,5 - - 35 19 46 25 ENE 1023,9 8 0 0,0
17.11.2018 19:00:00 7,9 5,5 - - 29 16 - - ENE 1023,8 8 0 0,0
17.11.2018 18:00:00 8,1 5,3 - - 26 14 - - ENE 1023,9 9 0 0,0
17.11.2018 17:00:00 8,6 4,8 - - 22 12 - - ENE 1023,9 11 0 0,0
17.11.2018 16:00:00 9,0 4,8 - - 29 16 46 25 ENE 1023,7 10 0 0,0
17.11.2018 15:00:00 9,4 5,1 - - 34 18 48 26 E 1023,9 10 54 0,0
17.11.2018 14:00:00 9,5 5,6 - - 34 18 48 26 E 1024,3 12 60 0,0
17.11.2018 13:00:00 9,2 6,1 - - 31 17 46 25 E 1024,6 14 42 0,0
17.11.2018 12:00:00 10,0 7,4 - - 28 15 - - E 1024,8 15 6 0,0
17.11.2018 11:00:00 9,2 7,3 - - 22 12 - - E 1024,9 14 0 0,0
17.11.2018 10:00:00 8,7 8,0 - - 26 14 - - E 1024,9 10 0 0,0
17.11.2018 09:00:00 8,2 7,8 11,2 11,9 28 15 - - E 1024,9 6 0 0,0
17.11.2018 08:00:00 8,3 8,1 - - 26 14 - - E 1024,7 3,3 0 0,2
17.11.2018 07:00:00 8,6 8,4 - - 21 11 - - E 1024,2 3,3 0 0,0
17.11.2018 06:00:00 8,7 8,4 - - 22 12 - - E 1024,2 3,5 0 0,0
17.11.2018 05:00:00 9,0 8,7 - - 21 11 - - E 1024,3 2,4 0 0,0
17.11.2018 04:00:00 9,2 8,9 - - 18 10 - - E 1024,2 3,5 0 0,0
17.11.2018 03:00:00 9,3 9,1 - - 21 11 - - E 1024,5 2,2 0 0,0
17.11.2018 02:00:00 9,4 9,1 - - 21 11 - - E 1024,6 2,8 0 0,0
17.11.2018 01:00:00 9,4 9,2 - - 18 10 - - E 1024,7 2,3 0 0,0
17.11.2018 00:00:00 9,6 9,3 - - 16 9 - - E 1024,4 2,7 - 0,0
16.11.2018 23:00:00 10,1 9,6 - - 18 10 - - E 1024,2 3,2 0 0,0
16.11.2018 22:00:00 10,4 9,7 - - 21 11 - - E 1024,2 5 0 0,0
16.11.2018 21:00:00 10,9 10,2 - - 18 10 - - E 1023,8 4,2 0 0,0
16.11.2018 20:00:00 11,2 10,7 - - 16 9 - - ESE 1023,5 3,1 0 0,0
16.11.2018 19:00:00 11,4 10,8 - - 16 9 - - ESE 1023,7 3,3 0 0,0
16.11.2018 18:00:00 12,0 11,0 - - 18 10 - - ESE 1023,5 4,7 0 0,0
16.11.2018 17:00:00 12,1 11,5 - - 15 8 - - ESE 1023,2 2,9 0 0,0
16.11.2018 16:00:00 12,3 11,4 - - 16 9 - - ESE 1022,9 3,7 0 0,0
16.11.2018 15:00:00 12,6 11,6 - - 21 11 - - ESE 1022,9 5 0 0,0
16.11.2018 14:00:00 12,8 11,8 - - 21 11 - - E 1023,0 4,9 0 0,0
16.11.2018 13:00:00 13,1 12,2 - - 18 10 - - ESE 1023,0 4,6 0 0,0
16.11.2018 12:00:00 13,0 11,9 - - 18 10 - - ESE 1023,2 5 0 0,0
16.11.2018 11:00:00 12,9 11,5 - - 16 9 - - E 1023,4 7 0 0,0
16.11.2018 10:00:00 12,6 11,3 - - 16 9 - - E 1023,3 8 0 0,0
16.11.2018 09:00:00 12,1 11,2 11,0 11,9 16 9 - - E 1023,2 7 0 0,0
16.11.2018 08:00:00 11,9 11,3 - - 15 8 - - E 1023,0 6 0 0,0
16.11.2018 07:00:00 11,9 11,7 - - 11 6 - - E 1022,5 4,0 0 0,0
16.11.2018 06:00:00 12,0 11,8 - - 11 6 - - E 1021,9 3,0 0 0,0
16.11.2018 05:00:00 11,7 11,5 - - 8 4 - - E 1021,5 2,8 0 0,0
16.11.2018 04:00:00 11,7 11,5 - - 5 3 - - E 1021,2 4,5 0 0,0
16.11.2018 03:00:00 11,8 11,6 - - 11 6 - - ESE 1020,8 5 0 0,0
16.11.2018 02:00:00 11,7 11,5 - - 9 5 - - ESE 1021,1 2,3 0 0,0
16.11.2018 01:00:00 11,8 11,6 - - 8 4 - - ESE 1021,2 2,0 0 0,0
16.11.2018 00:00:00 11,8 11,6 - - 8 4 - - ESE 1020,8 2,7 - 0,0
15.11.2018 23:00:00 11,9 11,7 - - 9 5 - - ESE 1020,2 2,5 0 0,0
15.11.2018 22:00:00 12,0 11,7 - - 9 5 - - ESE 1020,1 2,4 0 0,0
15.11.2018 21:00:00 12,1 11,8 - - 9 5 - - ESE 1019,5 2,6 0 0,0
15.11.2018 20:00:00 12,1 11,8 - - 9 5 - - ESE 1018,8 2,8 0 0,0
15.11.2018 19:00:00 12,3 12,0 - - 13 7 - - ESE 1018,5 4,5 0 0,0
15.11.2018 18:00:00 12,4 11,8 - - 13 7 - - ESE 1018,4 2,7 0 0,0
15.11.2018 17:00:00 12,7 11,8 - - 13 7 - - ESE 1018,1 6 0 0,0
15.11.2018 16:00:00 12,7 11,9 - - 8 4 - - E 1017,6 6 0 0,0
15.11.2018 15:00:00 12,8 11,6 - - 15 8 - - E 1017,6 7 0 0,0
15.11.2018 14:00:00 12,9 10,5 - - 13 7 - - ESE 1017,8 16 0 0,0
15.11.2018 13:00:00 12,5 10,2 - - 11 6 - - ESE 1018,3 14 12 0,0
15.11.2018 12:00:00 11,7 9,9 - - 18 10 - - ESE 1018,4 9 0 0,0
15.11.2018 11:00:00 12,0 9,9 - - 15 8 - - ESE 1018,7 11 36 0,0
15.11.2018 10:00:00 11,6 9,9 - - 13 7 - - SE 1018,8 11 48 0,0
15.11.2018 09:00:00 10,9 9,1 10,9 11,9 15 8 - - SE 1018,8 13 48 0,0
15.11.2018 08:00:00 10,3 8,5 - - 13 7 - - ESE 1018,5 20 0 0,0
15.11.2018 07:00:00 10,6 8,6 - - 15 8 - - ESE 1018,2 23 0 0,0
15.11.2018 06:00:00 10,6 9,7 - - 15 8 - - E 1018,2 35 0 0,0
15.11.2018 05:00:00 7,0 6,5 - - 8 4 - - SE 1018,2 5 0 0,0
15.11.2018 04:00:00 7,0 6,2 - - 8 4 - - ESE 1018,4 9 0 0,0
15.11.2018 03:00:00 8,0 6,6 - - 9 5 - - ESE 1018,2 13 0 0,0
15.11.2018 02:00:00 7,0 6,0 - - 13 7 - - ESE 1018,5 20 0 0,0
15.11.2018 01:00:00 6,8 5,5 - - 8 4 - - ENE 1018,6 16 0 0,0
15.11.2018 00:00:00 9,0 7,6 - - 11 6 - - ESE 1018,8 30 - 0,0
14.11.2018 23:00:00 8,6 7,6 - - 11 6 - - E 1018,8 35 0 0,0
14.11.2018 22:00:00 9,0 6,5 - - 13 7 - - E 1019,1 30 0 0,0
14.11.2018 21:00:00 9,2 6,6 - - 8 4 - - SE 1019,2 30 0 0,0
14.11.2018 20:00:00 10,1 6,7 - - 9 5 - - S 1019,1 50 0 0,0
14.11.2018 19:00:00 10,5 8,4 - - 9 5 - - SSE 1019,1 22 0 0,0
14.11.2018 18:00:00 9,9 8,3 - - 8 4 - - ESE 1018,8 22 0 0,0
14.11.2018 17:00:00 11,3 7,9 - - 15 8 - - S 1018,4 10 0 0,0
14.11.2018 16:00:00 12,2 7,9 - - 16 9 - - S 1018,4 30 6 0,0
14.11.2018 15:00:00 13,6 8,5 - - 15 8 - - S 1018,6 10 60 0,0
14.11.2018 14:00:00 14,2 8,4 - - 13 7 - - SSE 1018,7 35 60 0,0
14.11.2018 13:00:00 14,3 8,3 - - 15 8 - - SSE 1018,9 10 60 0,0
14.11.2018 12:00:00 14,4 9,7 - - 11 6 - - S 1019,4 10 60 0,0
14.11.2018 11:00:00 14,1 8,7 - - 11 6 - - S 1020,0 10 30 0,0
14.11.2018 10:00:00 12,4 8,8 - - 13 7 - - S 1020,0 10 18 0,0
14.11.2018 09:00:00 12,3 8,3 10,9 11,9 15 8 - - S 1020,1 22 12 0,0
14.11.2018 08:00:00 12,4 8,4 - - 13 7 - - S 1019,5 10 0 0,0
14.11.2018 07:00:00 12,6 8,5 - - 11 6 - - SSW 1019,3 10 0 0,0
14.11.2018 06:00:00 12,3 8,6 - - 16 9 - - S 1019,2 28 0 0,0
14.11.2018 05:00:00 12,6 8,2 - - 13 7 - - S 1019,6 35 0 0,0
14.11.2018 04:00:00 12,3 8,2 - - 8 4 - - S 1019,6 30 0 0,0
14.11.2018 03:00:00 12,5 7,7 - - 16 9 - - S 1019,7 45 0 0,0
14.11.2018 02:00:00 12,5 8,1 - - 16 9 - - S 1020,2 27 0 0,0
14.11.2018 01:00:00 12,3 8,4 - - 18 10 - - SSW 1021,0 35 0 0,0
14.11.2018 00:00:00 12,5 8,0 - - 16 9 - - SSW 1021,8 29 - 0,0
13.11.2018 23:00:00 12,1 8,3 - - 16 9 - - S 1021,6 24 0 0,0
13.11.2018 22:00:00 11,5 9,1 - - 13 7 - - S 1021,9 19 0 0,0
13.11.2018 21:00:00 11,8 8,5 - - 13 7 - - S 1022,0 23 0 0,0
13.11.2018 20:00:00 11,7 8,4 - - 13 7 - - S 1022,3 24 0 0,0
13.11.2018 19:00:00 12,1 8,4 - - 16 9 - - SSW 1022,5 26 0 0,0
13.11.2018 18:00:00 11,9 8,1 - - 18 10 - - SSW 1022,3 26 0 0,0
13.11.2018 17:00:00 12,1 8,1 - - 21 11 - - SSW 1022,1 30 0 0,0
13.11.2018 16:00:00 12,5 8,1 - - 16 9 - - SSW 1021,9 10 0 0,0
13.11.2018 15:00:00 12,5 8,4 - - 13 7 - - SSW 1021,7 30 30 0,0
13.11.2018 14:00:00 12,9 8,8 - - 16 9 - - SW 1021,6 10 48 0,0
13.11.2018 13:00:00 12,9 8,8 - - 18 10 - - SW 1021,7 10 30 0,0
13.11.2018 12:00:00 11,9 8,6 - - 22 12 - - SW 1021,4 10 36 0,0
13.11.2018 11:00:00 11,9 8,9 - - 22 12 - - WSW 1021,0 10 18 0,2
13.11.2018 10:00:00 10,8 8,4 - - 21 11 - - WSW 1020,3 20 30 0,4
13.11.2018 09:00:00 11,2 8,4 10,7 11,9 22 12 - - WSW 1019,2 10 6 0,0
13.11.2018 08:00:00 11,4 8,0 - - 26 14 - - W 1018,2 14 0 0,0
13.11.2018 07:00:00 11,2 7,5 - - 24 13 - - W 1017,1 15 0 0,0
13.11.2018 06:00:00 11,3 7,6 - - 24 13 - - W 1016,0 15 0 0,0
13.11.2018 05:00:00 10,9 7,6 - - 28 15 48 26 WSW 1014,9 16 0 0,0
13.11.2018 04:00:00 11,3 7,4 - - 34 18 46 25 W 1013,7 18 0 0,0
13.11.2018 03:00:00 11,0 7,4 - - 28 15 54 29 W 1012,9 14 0 0,4
13.11.2018 02:00:00 11,1 7,5 - - 29 16 - - W 1012,4 17 0 0,0
13.11.2018 01:00:00 10,6 8,2 - - 29 16 - - WSW 1011,3 8 0 1,2
13.11.2018 00:00:00 10,0 8,3 - - 24 13 59 32 WSW 1010,9 13 - 1,0
12.11.2018 23:00:00 10,2 7,0 - - 29 16 - - WSW 1010,1 26 0 0,4
12.11.2018 22:00:00 8,6 7,5 - - 29 16 54 29 WSW 1010,0 6 0 3,0
12.11.2018 21:00:00 10,3 6,7 - - 31 17 46 25 SW 1009,2 35 0 0,0
12.11.2018 20:00:00 10,4 6,5 - - 24 13 48 26 SSW 1008,4 27 0 0,0
12.11.2018 19:00:00 11,1 6,6 - - 29 16 50 27 SW 1008,4 30 0 0,2
12.11.2018 18:00:00 11,4 7,3 - - 28 15 - - SSW 1008,3 29 0 0,2
12.11.2018 17:00:00 12,0 6,7 - - 22 12 - - SSW 1007,6 23 0 0,0
12.11.2018 16:00:00 12,3 7,3 - - 16 9 - - SSW 1007,2 25 0 0,0
12.11.2018 15:00:00 12,8 7,6 - - 18 10 - - SSW 1006,9 10 48 0,0
12.11.2018 14:00:00 12,8 8,0 - - 18 10 - - SSW 1006,8 10 12 0,0
12.11.2018 13:00:00 12,0 6,7 - - 28 15 - - SW 1006,4 27 0 0,0
12.11.2018 12:00:00 12,6 7,9 - - 21 11 - - SSW 1006,4 24 48 0,0
12.11.2018 11:00:00 12,7 7,8 - - 18 10 - - SSW 1006,6 10 60 0,0
12.11.2018 10:00:00 12,1 8,2 - - 21 11 - - SSW 1006,6 18 42 0,0
12.11.2018 09:00:00 11,5 8,4 10,9 12,0 15 8 - - S 1006,1 21 42 0,0
12.11.2018 08:00:00 10,4 8,1 - - 16 9 - - S 1005,5 17 0 0,0
12.11.2018 07:00:00 10,7 7,7 - - 15 8 - - S 1004,8 18 0 0,0
12.11.2018 06:00:00 10,5 7,6 - - 16 9 - - S 1004,4 17 0 0,0
12.11.2018 05:00:00 10,5 7,7 - - 16 9 - - SSW 1004,1 17 0 0,0
12.11.2018 04:00:00 10,3 7,6 - - 15 8 - - S 1004,0 21 0 0,0

tt = Température de l'air
td = dewpoint
tt -20cm = Température de l'air -20cm
tt -100cm = Température de l'air -100cm
ff = Vitesse du vent
fx = gusts
dd = Direction du vent
ppp = reduced air pressure
vv = visibility
sd = Ensoleillement
rr = Quantités de précipitations

stations d'obs. à proximité